When you browse on this site, cookies collect data to enhance your experience and personalize the content and advertising you see.
Visit our Privacy Policy to learn more. By continuing to use the site, you agree to this use of cookies and data.
  • In Österreich
  • Länderverzeichnis
  • Für 7 Tage
  • Wassertemperatur
  • Satellitenkarten
  • Wetterkarte
  • News
  • Widgets
  • user-avatar
    Anmelden

    Stündliche Wetter Sunnyvale

    Heute, 19 April, Freitag

    Zeit Temperatur Niederschläge Wind Luftdruck Luftfeuchtigkeit
    00:00 +17°C° 0 mm 0 m/S 759 mmHg 69%
    01:00 +16°C° 0 mm 0 m/S 759 mmHg 70%
    02:00 +16°C° 0 mm 0 m/S 758 mmHg 70%
    03:00 +16°C° 0 mm 0 m/S 758 mmHg 71%
    04:00 +16°C° 0 mm 0 m/S 758 mmHg 71%
    05:00 +17°C° 0 mm 0 m/S 758 mmHg 69%
    06:00 +17°C° 0 mm 0 m/S 758 mmHg 66%
    07:00 +18°C° 0 mm 0 m/S 757 mmHg 64%
    08:00 +21°C° 0 mm 0 m/S 757 mmHg 56%
    09:00 +25°C° 0 mm 1 m/S 757 mmHg 49%
    10:00 +28°C° 0 mm 1 m/S 757 mmHg 41%
    11:00 +28°C° 0 mm 1 m/S 757 mmHg 39%
    12:00 +29°C° 0 mm 2 m/S 756 mmHg 36%
    13:00 +30°C° 0 mm 2 m/S 756 mmHg 34%
    14:00 +29°C° 0 mm 2 m/S 756 mmHg 36%
    15:00 +28°C° 0 mm 3 m/S 755 mmHg 39%
    16:00 +27°C° 0 mm 3 m/S 755 mmHg 41%
    17:00 +25°C° 0 mm 3 m/S 755 mmHg 50%
    18:00 +21°C° 0 mm 2 m/S 755 mmHg 59%
    19:00 +19°C° 0 mm 2 m/S 755 mmHg 67%
    20:00 +19°C° 0 mm 1 m/S 755 mmHg 72%
    21:00 +18°C° 0 mm 1 m/S 755 mmHg 76%
    22:00 +16°C° 0 mm 1 m/S 755 mmHg 80%
    23:00 +15°C° 0 mm 1 m/S 755 mmHg 82%

    Morgen, 20 April, Samstag

    Zeit Temperatur Niederschläge Wind Luftdruck Luftfeuchtigkeit
    00:00 +15°C° 0 mm 1 m/S 755 mmHg 83%
    01:00 +14°C° 0 mm 1 m/S 755 mmHg 85%
    02:00 +14°C° 0 mm 2 m/S 755 mmHg 86%
    03:00 +14°C° 0 mm 2 m/S 755 mmHg 87%
    04:00 +14°C° 0 mm 2 m/S 755 mmHg 88%
    05:00 +14°C° 0 mm 2 m/S 755 mmHg 87%
    06:00 +13°C° 0 mm 3 m/S 756 mmHg 86%
    07:00 +14°C° 0 mm 3 m/S 756 mmHg 85%
    08:00 +14°C° 0 mm 3 m/S 756 mmHg 82%
    09:00 +14°C° 0 mm 3 m/S 756 mmHg 80%
    10:00 +14°C° 0 mm 4 m/S 757 mmHg 78%
    11:00 +15°C° 0 mm 4 m/S 757 mmHg 73%
    12:00 +15°C° 0 mm 4 m/S 757 mmHg 69%
    13:00 +17°C° 0 mm 4 m/S 757 mmHg 64%
    14:00 +15°C° 0 mm 5 m/S 756 mmHg 64%
    15:00 +15°C° 0 mm 5 m/S 756 mmHg 64%
    16:00 +15°C° 0 mm 6 m/S 756 mmHg 64%
    17:00 +14°C° 0 mm 5 m/S 756 mmHg 68%
    18:00 +13°C° 0 mm 4 m/S 756 mmHg 72%
    19:00 +12°C° 0 mm 4 m/S 757 mmHg 76%
    20:00 +12°C° 0 mm 3 m/S 757 mmHg 78%
    21:00 +11°C° 0 mm 3 m/S 758 mmHg 80%
    22:00 +12°C° 0 mm 2 m/S 758 mmHg 82%
    23:00 +12°C° 0 mm 2 m/S 758 mmHg 83%

    übermorgen, 21 April, Sonntag

    Zeit Temperatur Niederschläge Wind Luftdruck Luftfeuchtigkeit
    00:00 +12°C° 0 mm 1 m/S 758 mmHg 84%
    01:00 +12°C° 0 mm 1 m/S 758 mmHg 85%
    02:00 +12°C° 0 mm 1 m/S 758 mmHg 86%
    03:00 +11°C° 0 mm 1 m/S 758 mmHg 87%
    04:00 +11°C° 0 mm 1 m/S 758 mmHg 88%
    05:00 +11°C° 0 mm 0 m/S 759 mmHg 84%
    06:00 +12°C° 0 mm 0 m/S 759 mmHg 81%
    07:00 +13°C° 0 mm 0 m/S 760 mmHg 78%
    08:00 +16°C° 0 mm 1 m/S 760 mmHg 68%
    09:00 +18°C° 0 mm 2 m/S 760 mmHg 59%
    10:00 +20°C° 0 mm 3 m/S 760 mmHg 50%
    11:00 +21°C° 0 mm 3 m/S 760 mmHg 47%
    12:00 +22°C° 0 mm 3 m/S 760 mmHg 44%
    13:00 +23°C° 0 mm 4 m/S 759 mmHg 40%
    14:00 +23°C° 0 mm 4 m/S 759 mmHg 43%
    15:00 +22°C° 0 mm 4 m/S 759 mmHg 45%
    16:00 +22°C° 0 mm 4 m/S 759 mmHg 48%
    17:00 +20°C° 0 mm 3 m/S 759 mmHg 56%
    18:00 +18°C° 0 mm 2 m/S 759 mmHg 65%
    19:00 +16°C° 0 mm 2 m/S 759 mmHg 73%
    20:00 +15°C° 0 mm 1 m/S 760 mmHg 76%
    21:00 +15°C° 0 mm 1 m/S 760 mmHg 78%
    22:00 +14°C° 0 mm 1 m/S 760 mmHg 81%
    23:00 +14°C° 0 mm 1 m/S 760 mmHg 82%

    22 April, Montag

    Zeit Temperatur Niederschläge Wind Luftdruck Luftfeuchtigkeit
    00:00 +13°C° 0 mm 1 m/S 760 mmHg 82%
    01:00 +13°C° 0 mm 1 m/S 760 mmHg 83%
    02:00 +13°C° 0 mm 1 m/S 760 mmHg 83%
    03:00 +13°C° 0 mm 1 m/S 760 mmHg 83%
    04:00 +13°C° 0 mm 1 m/S 760 mmHg 83%
    05:00 +13°C° 0 mm 0 m/S 760 mmHg 80%
    06:00 +14°C° 0 mm 0 m/S 761 mmHg 77%
    07:00 +15°C° 0 mm 0 m/S 761 mmHg 74%
    08:00 +19°C° 0 mm 1 m/S 761 mmHg 63%
    09:00 +21°C° 0 mm 2 m/S 761 mmHg 52%
    10:00 +24°C° 0 mm 2 m/S 761 mmHg 41%
    11:00 +25°C° 0 mm 3 m/S 761 mmHg 37%
    12:00 +27°C° 0 mm 3 m/S 760 mmHg 33%
    13:00 +28°C° 0 mm 3 m/S 760 mmHg 30%
    14:00 +27°C° 0 mm 3 m/S 760 mmHg 32%
    15:00 +27°C° 0 mm 3 m/S 759 mmHg 34%
    16:00 +27°C° 0 mm 3 m/S 759 mmHg 36%
    17:00 +25°C° 0 mm 3 m/S 759 mmHg 44%
    18:00 +21°C° 0 mm 2 m/S 759 mmHg 51%
    19:00 +19°C° 0 mm 2 m/S 759 mmHg 59%
    20:00 +20°C° 0 mm 1 m/S 759 mmHg 61%
    21:00 +19°C° 0 mm 1 m/S 759 mmHg 63%
    22:00 +18°C° 0 mm 1 m/S 760 mmHg 65%
    23:00 +16°C° 0 mm 0 m/S 759 mmHg 65%

    23 April, Dienstag

    Zeit Temperatur Niederschläge Wind Luftdruck Luftfeuchtigkeit
    00:00 +16°C° 0 mm 0 m/S 759 mmHg 66%
    01:00 +15°C° 0 mm 0 m/S 759 mmHg 66%
    02:00 +15°C° 0 mm 0 m/S 759 mmHg 66%
    03:00 +16°C° 0 mm 1 m/S 759 mmHg 66%
    04:00 +16°C° 0 mm 1 m/S 758 mmHg 65%
    05:00 +18°C° 0 mm 1 m/S 759 mmHg 63%
    06:00 +19°C° 0 mm 1 m/S 759 mmHg 60%
    07:00 +21°C° 0 mm 1 m/S 759 mmHg 57%
    08:00 +23°C° 0 mm 1 m/S 759 mmHg 50%
    09:00 +26°C° 0 mm 1 m/S 759 mmHg 42%
    10:00 +29°C° 0 mm 1 m/S 759 mmHg 35%
    11:00 +30°C° 0 mm 2 m/S 759 mmHg 32%
    12:00 +31°C° 0 mm 2 m/S 758 mmHg 29%
    13:00 +32°C° 0 mm 2 m/S 758 mmHg 27%
    14:00 +32°C° 0 mm 2 m/S 758 mmHg 28%
    15:00 +32°C° 0 mm 2 m/S 758 mmHg 30%
    16:00 +31°C° 0 mm 3 m/S 757 mmHg 31%
    17:00 +29°C° 0 mm 2 m/S 757 mmHg 38%
    18:00 +26°C° 0 mm 2 m/S 757 mmHg 44%
    19:00 +24°C° 0 mm 1 m/S 758 mmHg 51%
    20:00 +23°C° 0 mm 1 m/S 758 mmHg 53%
    21:00 +23°C° 0 mm 1 m/S 758 mmHg 55%
    22:00 +20°C° 0 mm 0 m/S 758 mmHg 57%
    23:00 +19°C° 0 mm 0 m/S 758 mmHg 58%

    24 April, Mittwoch

    Zeit Temperatur Niederschläge Wind Luftdruck Luftfeuchtigkeit
    00:00 +21°C° 0 mm 1 m/S 758 mmHg 59%
    01:00 +21°C° 0 mm 1 m/S 758 mmHg 61%
    02:00 +21°C° 0 mm 1 m/S 758 mmHg 61%
    03:00 +20°C° 0 mm 1 m/S 758 mmHg 62%
    04:00 +18°C° 0 mm 0 m/S 758 mmHg 63%
    05:00 +19°C° 0 mm 0 m/S 758 mmHg 60%
    06:00 +20°C° 0 mm 0 m/S 758 mmHg 58%
    07:00 +21°C° 0 mm 0 m/S 758 mmHg 56%
    08:00 +24°C° 0 mm 0 m/S 759 mmHg 49%
    09:00 +26°C° 0 mm 0 m/S 759 mmHg 42%
    10:00 +29°C° 0 mm 0 m/S 759 mmHg 36%
    11:00 +32°C° 0 mm 1 m/S 758 mmHg 33%
    12:00 +33°C° 0 mm 1 m/S 758 mmHg 31%
    13:00 +34°C° 0 mm 2 m/S 758 mmHg 29%
    14:00 +34°C° 0 mm 2 m/S 757 mmHg 31%
    15:00 +32°C° 0 mm 2 m/S 757 mmHg 33%
    16:00 +31°C° 0 mm 2 m/S 757 mmHg 35%
    17:00 +29°C° 0 mm 2 m/S 757 mmHg 43%
    18:00 +27°C° 0 mm 2 m/S 757 mmHg 50%
    19:00 +24°C° 0 mm 1 m/S 757 mmHg 57%
    20:00 +23°C° 0 mm 1 m/S 757 mmHg 60%
    21:00 +22°C° 0 mm 1 m/S 757 mmHg 63%
    22:00 +20°C° 0 mm 0 m/S 757 mmHg 66%
    23:00 +19°C° 0 mm 0 m/S 757 mmHg 67%
    Mehr zeigen